Time,TemperatureF,DewpointF,PressureIn,WindDirection,WindDirectionDegrees,WindSpeedMPH,WindSpeedGustMPH,Humidity,HourlyPrecipIn,Conditions,Clouds,dailyrainin,SolarRadiationWatts/m^2,SoftwareType,DateUTC
2013-04-03 00:02:00,42.0,30.0,-100.00,ESE,114,5.0,6.0,63,0.00,,,0.00,0.000000,,2013-04-03 06:02:00,
2013-04-03 00:12:00,42.0,30.0,-100.00,ESE,114,5.0,6.0,63,0.00,,,0.00,0.000000,,2013-04-03 06:12:00,
2013-04-03 00:42:00,40.0,29.0,-100.00,ESE,111,7.0,9.0,64,0.00,,,0.00,0.000000,,2013-04-03 06:42:00,
2013-04-03 00:52:00,40.0,29.0,-100.00,ESE,111,7.0,9.0,64,0.00,,,0.00,0.000000,,2013-04-03 06:52:00,
2013-04-03 01:02:00,40.0,29.0,-100.00,ESE,111,7.0,9.0,64,0.00,,,0.00,0.000000,,2013-04-03 07:02:00,
2013-04-03 01:11:00,40.0,29.0,-100.00,ESE,111,7.0,9.0,64,0.00,,,0.00,0.000000,,2013-04-03 07:11:00,
2013-04-03 01:42:00,38.0,29.0,-100.00,ESE,108,5.0,8.0,70,0.00,,,0.00,0.000000,,2013-04-03 07:42:00,
2013-04-03 01:53:00,38.0,29.0,-100.00,ESE,108,5.0,8.0,70,0.00,,,0.00,0.000000,,2013-04-03 07:53:00,
2013-04-03 02:02:00,38.0,29.0,-100.00,ESE,108,5.0,8.0,70,0.00,,,0.00,0.000000,,2013-04-03 08:02:00,
2013-04-03 02:12:00,38.0,29.0,-100.00,ESE,108,5.0,8.0,70,0.00,,,0.00,0.000000,,2013-04-03 08:12:00,
2013-04-03 02:43:00,35.0,28.0,-100.00,North,5,2.0,7.0,75,0.00,,,0.00,0.000000,,2013-04-03 08:43:00,
2013-04-03 02:52:00,35.0,28.0,-100.00,North,5,2.0,7.0,75,0.00,,,0.00,0.000000,,2013-04-03 08:52:00,
2013-04-03 03:02:00,35.0,28.0,-100.00,North,5,2.0,7.0,75,0.00,,,0.00,0.000000,,2013-04-03 09:02:00,
2013-04-03 03:11:00,35.0,28.0,-100.00,North,5,2.0,7.0,75,0.00,,,0.00,0.000000,,2013-04-03 09:11:00,
2013-04-03 03:43:00,35.0,29.0,-100.00,SE,130,3.0,5.0,80,0.00,,,0.00,0.000000,,2013-04-03 09:43:00,
2013-04-03 03:53:00,35.0,29.0,-100.00,SE,130,3.0,5.0,80,0.00,,,0.00,0.000000,,2013-04-03 09:53:00,
2013-04-03 04:02:00,35.0,29.0,-100.00,SE,130,3.0,5.0,80,0.00,,,0.00,0.000000,,2013-04-03 10:02:00,
2013-04-03 04:12:00,35.0,29.0,-100.00,SE,130,3.0,5.0,80,0.00,,,0.00,0.000000,,2013-04-03 10:12:00,
2013-04-03 04:43:00,34.0,29.0,-100.00,SE,139,3.0,5.0,83,0.00,,,0.00,0.000000,,2013-04-03 10:43:00,
2013-04-03 04:53:00,34.0,29.0,-100.00,SE,139,3.0,5.0,83,0.00,,,0.00,0.000000,,2013-04-03 10:53:00,
2013-04-03 05:02:00,34.0,29.0,-100.00,SE,139,3.0,5.0,83,0.00,,,0.00,0.000000,,2013-04-03 11:02:00,
2013-04-03 05:12:00,34.0,29.0,-100.00,SE,139,3.0,5.0,83,0.00,,,0.00,0.000000,,2013-04-03 11:12:00,
2013-04-03 05:42:00,32.0,29.0,-100.00,NNE,32,2.0,6.0,87,0.00,,,0.00,0.000000,,2013-04-03 11:42:00,
2013-04-03 05:53:00,32.0,29.0,-100.00,NNE,32,2.0,6.0,87,0.00,,,0.00,0.000000,,2013-04-03 11:53:00,
2013-04-03 06:02:00,32.0,29.0,-100.00,NNE,32,2.0,6.0,87,0.00,,,0.00,0.000000,,2013-04-03 12:02:00,
2013-04-03 06:12:00,32.0,29.0,-100.00,NNE,32,2.0,6.0,87,0.00,,,0.00,0.000000,,2013-04-03 12:12:00,
2013-04-03 06:42:00,29.0,26.0,-100.00,East,91,2.0,4.0,87,0.00,,,0.00,0.000000,,2013-04-03 12:42:00,
2013-04-03 06:52:00,29.0,26.0,-100.00,East,91,2.0,4.0,87,0.00,,,0.00,0.000000,,2013-04-03 12:52:00,
2013-04-03 07:02:00,29.0,26.0,-100.00,East,91,2.0,4.0,87,0.00,,,0.00,0.000000,,2013-04-03 13:02:00,
2013-04-03 07:12:00,29.0,26.0,-100.00,East,91,2.0,4.0,87,0.00,,,0.00,0.000000,,2013-04-03 13:12:00,
2013-04-03 07:42:00,33.0,29.0,-100.00,NW,323,1.0,4.0,85,0.00,,,0.00,1.000000,,2013-04-03 13:42:00,
2013-04-03 07:52:00,33.0,29.0,-100.00,NW,323,1.0,4.0,85,0.00,,,0.00,1.000000,,2013-04-03 13:52:00,
2013-04-03 08:02:00,33.0,29.0,-100.00,NW,323,1.0,4.0,85,0.00,,,0.00,1.000000,,2013-04-03 14:02:00,
2013-04-03 08:12:00,33.0,29.0,-100.00,NW,323,1.0,4.0,85,0.00,,,0.00,1.000000,,2013-04-03 14:12:00,
2013-04-03 08:43:00,31.0,28.0,-100.00,NNE,15,1.0,4.0,88,0.00,,,0.00,13.000000,,2013-04-03 14:43:00,
2013-04-03 08:52:00,31.0,28.0,-100.00,NNE,15,1.0,4.0,88,0.00,,,0.00,13.000000,,2013-04-03 14:52:00,
2013-04-03 09:02:00,31.0,28.0,-100.00,NNE,15,1.0,4.0,88,0.00,,,0.00,13.000000,,2013-04-03 15:02:00,
2013-04-03 09:12:00,31.0,28.0,-100.00,NNE,15,1.0,4.0,88,0.00,,,0.00,13.000000,,2013-04-03 15:12:00,
2013-04-03 09:43:00,35.0,30.0,-100.00,North,2,1.0,4.0,83,0.00,,,0.00,112.000000,,2013-04-03 15:43:00,
2013-04-03 09:53:00,35.0,30.0,-100.00,North,2,1.0,4.0,83,0.00,,,0.00,112.000000,,2013-04-03 15:53:00,
2013-04-03 10:02:00,35.0,30.0,-100.00,North,2,1.0,4.0,83,0.00,,,0.00,112.000000,,2013-04-03 16:02:00,
2013-04-03 10:12:00,35.0,30.0,-100.00,North,2,1.0,4.0,83,0.00,,,0.00,112.000000,,2013-04-03 16:12:00,
2013-04-03 10:44:00,46.0,38.0,-100.00,WSW,243,2.0,4.0,73,0.00,,,0.00,399.000000,,2013-04-03 16:44:00,
2013-04-03 10:52:00,46.0,38.0,-100.00,WSW,243,2.0,4.0,73,0.00,,,0.00,399.000000,,2013-04-03 16:52:00,
2013-04-03 11:02:00,46.0,38.0,-100.00,WSW,243,2.0,4.0,73,0.00,,,0.00,399.000000,,2013-04-03 17:02:00,
2013-04-03 11:12:00,46.0,38.0,-100.00,WSW,243,2.0,4.0,73,0.00,,,0.00,399.000000,,2013-04-03 17:12:00,
2013-04-03 11:46:00,51.0,31.0,-100.00,South,189,5.0,9.0,47,0.00,,,-99.99,603.000000,,2013-04-03 17:46:00,
2013-04-03 11:53:00,51.0,31.0,-100.00,South,189,5.0,9.0,47,0.00,,,-99.99,603.000000,,2013-04-03 17:53:00,
2013-04-03 12:02:00,51.0,31.0,-100.00,South,189,5.0,9.0,47,0.00,,,-99.99,603.000000,,2013-04-03 18:02:00,
2013-04-03 12:12:00,51.0,31.0,-100.00,South,189,5.0,9.0,47,0.00,,,-99.99,603.000000,,2013-04-03 18:12:00,
2013-04-03 12:43:00,54.0,30.0,-100.00,SW,220,7.0,13.0,39,0.00,,,0.00,786.000000,,2013-04-03 18:43:00,
2013-04-03 12:52:00,54.0,30.0,-100.00,SW,220,7.0,13.0,39,0.00,,,0.00,786.000000,,2013-04-03 18:52:00,
2013-04-03 13:02:00,54.0,30.0,-100.00,SW,220,7.0,13.0,39,0.00,,,0.00,786.000000,,2013-04-03 19:02:00,
2013-04-03 13:12:00,54.0,30.0,-100.00,SW,220,7.0,13.0,39,0.00,,,0.00,786.000000,,2013-04-03 19:12:00,
2013-04-03 13:42:00,58.0,29.0,-100.00,SW,219,10.0,19.0,33,0.00,,,0.00,735.000000,,2013-04-03 19:42:00,
2013-04-03 13:52:00,58.0,29.0,-100.00,SW,219,10.0,19.0,33,0.00,,,0.00,735.000000,,2013-04-03 19:52:00,
2013-04-03 14:02:00,58.0,29.0,-100.00,SW,219,10.0,19.0,33,0.00,,,0.00,735.000000,,2013-04-03 20:02:00,
2013-04-03 14:12:00,58.0,29.0,-100.00,SW,219,10.0,19.0,33,0.00,,,0.00,735.000000,,2013-04-03 20:12:00,
2013-04-03 14:42:00,54.0,27.0,-100.00,SW,215,12.0,20.0,35,0.00,,,0.00,445.000000,,2013-04-03 20:42:00,
2013-04-03 14:53:00,54.0,27.0,-100.00,SW,215,12.0,20.0,35,0.00,,,0.00,445.000000,,2013-04-03 20:53:00,
2013-04-03 15:02:00,54.0,27.0,-100.00,SW,215,12.0,20.0,35,0.00,,,0.00,445.000000,,2013-04-03 21:02:00,
2013-04-03 15:12:00,54.0,27.0,-100.00,SW,215,12.0,20.0,35,0.00,,,0.00,445.000000,,2013-04-03 21:12:00,
2013-04-03 15:33:00,58.0,28.0,-100.00,SW,234,11.0,18.0,31,0.00,,,0.00,680.000000,,2013-04-03 21:33:00,
2013-04-03 15:42:00,58.0,28.0,-100.00,SW,234,11.0,18.0,31,0.00,,,0.00,680.000000,,2013-04-03 21:42:00,
2013-04-03 15:52:00,58.0,28.0,-100.00,SW,234,11.0,18.0,31,0.00,,,0.00,680.000000,,2013-04-03 21:52:00,
2013-04-03 16:02:00,58.0,28.0,-100.00,SW,234,11.0,18.0,31,0.00,,,0.00,680.000000,,2013-04-03 22:02:00,
2013-04-03 16:12:00,58.0,28.0,-100.00,SW,234,11.0,18.0,31,0.00,,,0.00,680.000000,,2013-04-03 22:12:00,
2013-04-03 16:42:00,56.0,24.0,-100.00,SW,225,9.0,20.0,29,0.00,,,0.00,672.000000,,2013-04-03 22:42:00,
2013-04-03 16:52:00,56.0,24.0,-100.00,SW,225,9.0,20.0,29,0.00,,,0.00,672.000000,,2013-04-03 22:52:00,
2013-04-03 17:02:00,56.0,24.0,-100.00,SW,225,9.0,20.0,29,0.00,,,0.00,672.000000,,2013-04-03 23:02:00,
2013-04-03 17:12:00,56.0,24.0,-100.00,SW,225,9.0,20.0,29,0.00,,,0.00,672.000000,,2013-04-03 23:12:00,
2013-04-03 17:33:00,59.0,27.0,-100.00,West,268,8.0,21.0,29,0.00,,,0.00,484.000000,,2013-04-03 23:33:00,
2013-04-03 17:43:00,59.0,27.0,-100.00,West,268,8.0,21.0,29,0.00,,,0.00,484.000000,,2013-04-03 23:43:00,
2013-04-03 17:54:00,59.0,27.0,-100.00,West,268,8.0,21.0,29,0.00,,,0.00,484.000000,,2013-04-03 23:54:00,
2013-04-03 18:02:00,59.0,27.0,-100.00,West,268,8.0,21.0,29,0.00,,,0.00,484.000000,,2013-04-04 00:02:00,
2013-04-03 18:12:00,59.0,27.0,-100.00,West,268,8.0,21.0,29,0.00,,,0.00,484.000000,,2013-04-04 00:12:00,
2013-04-03 18:43:00,58.0,28.0,-100.00,West,264,7.0,17.0,32,0.00,,,-99.99,379.000000,,2013-04-04 00:43:00,
2013-04-03 18:52:00,58.0,28.0,-100.00,West,264,7.0,17.0,32,0.00,,,-99.99,379.000000,,2013-04-04 00:52:00,
2013-04-03 19:02:00,58.0,28.0,-100.00,West,264,7.0,17.0,32,0.00,,,-99.99,379.000000,,2013-04-04 01:02:00,
2013-04-03 19:11:00,58.0,28.0,-100.00,West,264,7.0,17.0,32,0.00,,,-99.99,379.000000,,2013-04-04 01:11:00,
2013-04-03 19:32:00,56.0,26.0,-100.00,SSW,207,2.0,13.0,31,0.00,,,0.00,126.000000,,2013-04-04 01:32:00,
2013-04-03 19:43:00,56.0,26.0,-100.00,SSW,207,2.0,13.0,31,0.00,,,0.00,126.000000,,2013-04-04 01:43:00,
2013-04-03 19:52:00,56.0,26.0,-100.00,SSW,207,2.0,13.0,31,0.00,,,0.00,126.000000,,2013-04-04 01:52:00,
2013-04-03 20:02:00,56.0,26.0,-100.00,SSW,207,2.0,13.0,31,0.00,,,0.00,126.000000,,2013-04-04 02:02:00,
2013-04-03 20:12:00,56.0,26.0,-100.00,SSW,207,2.0,13.0,31,0.00,,,0.00,126.000000,,2013-04-04 02:12:00,
2013-04-03 21:02:00,49.0,25.0,-100.00,ENE,62,2.0,6.0,38,0.00,,,0.00,21.000000,,2013-04-04 03:02:00,
2013-04-03 21:11:00,49.0,25.0,-100.00,ENE,62,2.0,6.0,38,0.00,,,0.00,21.000000,,2013-04-04 03:11:00,
2013-04-03 21:34:00,45.0,28.0,-100.00,ESE,110,7.0,9.0,52,0.00,,,0.00,0.000000,,2013-04-04 03:34:00,
2013-04-03 21:45:00,45.0,28.0,-100.00,ESE,110,7.0,9.0,52,0.00,,,0.00,0.000000,,2013-04-04 03:45:00,
2013-04-03 21:53:00,45.0,28.0,-100.00,ESE,110,7.0,9.0,52,0.00,,,0.00,0.000000,,2013-04-04 03:53:00,
2013-04-03 22:02:00,45.0,28.0,-100.00,ESE,110,7.0,9.0,52,0.00,,,0.00,0.000000,,2013-04-04 04:02:00,
2013-04-03 22:12:00,45.0,28.0,-100.00,ESE,110,7.0,9.0,52,0.00,,,0.00,0.000000,,2013-04-04 04:12:00,
2013-04-03 22:43:00,44.0,29.0,-100.00,East,98,6.0,8.0,55,0.00,,,0.00,0.000000,,2013-04-04 04:43:00,
2013-04-03 22:53:00,44.0,29.0,-100.00,East,98,6.0,8.0,55,0.00,,,0.00,0.000000,,2013-04-04 04:53:00,
2013-04-03 23:02:00,44.0,29.0,-100.00,East,98,6.0,8.0,55,0.00,,,0.00,0.000000,,2013-04-04 05:02:00,
2013-04-03 23:12:00,44.0,29.0,-100.00,East,98,6.0,8.0,55,0.00,,,0.00,0.000000,,2013-04-04 05:12:00,
2013-04-03 23:32:00,42.0,30.0,-100.00,East,101,3.0,7.0,61,0.00,,,-99.99,0.000000,,2013-04-04 05:32:00,
2013-04-03 23:42:00,42.0,30.0,-100.00,East,101,3.0,7.0,61,0.00,,,-99.99,0.000000,,2013-04-04 05:42:00,
2013-04-03 23:52:00,42.0,30.0,-100.00,East,101,3.0,7.0,61,0.00,,,-99.99,0.000000,,2013-04-04 05:52:00,